Weather History for KP53 - July, 2013

Change the Weather History Date:

Friday, July 26, 2013

  Actual Average (KMQT) Record (KMQT)
Temperature  
Mean Temperature 59 °F 66 °F  
Max Temperature 66 °F 77 °F 91 °F (1989)
Min Temperature 52 °F 55 °F 40 °F (1962)
Degree Days  
Heating Degree Days 6 2  
Month to date heating degree days 64  
Since 1 June heating degree days 246  
Since 1 July heating degree days 64  
Cooling Degree Days 0 3  
Month to date cooling degree days 78  
Year to date cooling degree days 138  
Since 1 June cooling degree days 126  
Growing Degree Days 9 (Base 50)    
Moisture  
Dew Point 58 °F    
Average Humidity 89    
Maximum Humidity 93    
Minimum Humidity 81    
Precipitation  
Precipitation 1.00 in 0.09 in 0.89 in (2013)
Month to date precipitation 2.36  
Year to date precipitation 18.84  
Snow  
Snow 0.00 in 0.00 in - ()
Month to date snowfall 0.0  
Since 1 June snowfall 0.0  
Since 1 July snowfall 0.0  
Snow Depth -    
Sea Level Pressure  
Sea Level Pressure 29.88 in    
Wind  
Wind Speed 8 mph (WSW)    
Max Wind Speed 16 mph    
Max Gust Speed 25 mph    
T = Trace of Precipitation, MM = Missing Value Source: NWS Daily Summary

Daily Weather History Graph

Daily Weather History Graph

Search for Another Location

Airport or City:

Trip Planner

Search our weather history database for the weather conditions in past years. The results will help you decide how hot, cold, wet, or windy it might be!

Date:

Astronomy

Jul. 26, 2013 Rise Set
Actual Time 6:21 AM EDT 9:24 PM EDT
Civil Twilight 5:45 AM EDT 10:00 PM EDT
Nautical Twilight 4:59 AM EDT 10:46 PM EDT
Astronomical Twilight 4:02 AM EDT 11:41 PM EDT
Moon 11:16 PM EDT (7/26) 11:16 AM EDT (7/26)
Length of Visible Light 16h 14m
Length of Day
15h 03m
Waning Gibbous, 80% of the Moon is Illuminated
Jul 26
Waning Gibbous
Jul 29
Last Quarter
Aug 6
New
Aug 14
First Quarter
Aug 20
Full

Hourly Weather History & Observations

Time (EDT) Temp. Dew Point Humidity Pressure Visibility Wind Dir Wind Speed Gust Speed Precip Events Conditions
12:56 AM 63.0 °F 59.0 °F 87% 29.91 in - South 10.4 mph 17.3 mph 0.01 in   Unknown
1:56 AM 63.0 °F 60.1 °F 90% 29.89 in - South 9.2 mph - 0.16 in   Unknown
2:56 AM 63.0 °F 60.1 °F 90% 29.89 in - South 8.1 mph - 0.09 in   Unknown
3:56 AM 62.1 °F 60.1 °F 93% 29.85 in - South 9.2 mph - N/A   Unknown
4:56 AM 62.1 °F 59.0 °F 90% 29.87 in - South 5.8 mph - N/A   Unknown
5:56 AM 62.1 °F 59.0 °F 90% 29.87 in - South 4.6 mph - N/A   Unknown
6:56 AM 62.1 °F 60.1 °F 93% 29.88 in - SSW 8.1 mph - N/A   Unknown
7:56 AM 63.0 °F 60.1 °F 90% 29.89 in - Calm Calm - N/A   Unknown
8:56 AM 64.0 °F 61.0 °F 90% 29.89 in - Calm Calm - N/A   Unknown
9:56 AM 64.0 °F 61.0 °F 90% 29.89 in - South 3.5 mph - 0.01 in   Unknown
10:56 AM 66.0 °F 62.1 °F 87% 29.89 in - SW 3.5 mph - 0.01 in   Unknown
11:56 AM 66.0 °F 63.0 °F 90% 29.88 in - Calm Calm - 0.01 in   Unknown
12:56 PM 66.0 °F 63.0 °F 90% 29.86 in - Calm Calm - 0.03 in   Unknown
1:56 PM 66.9 °F 62.1 °F 84% 29.86 in - Calm Calm - 0.02 in   Unknown
2:56 PM 64.9 °F 62.1 °F 90% 29.85 in - North 3.5 mph - N/A   Unknown
3:56 PM 60.1 °F 55.9 °F 86% 29.86 in - NE 13.8 mph - 0.27 in   Unknown
4:56 PM 59.0 °F 55.9 °F 90% 29.89 in - North 6.9 mph - 0.18 in   Unknown
5:56 PM 59.0 °F 54.0 °F 83% 29.85 in - ENE 9.2 mph - 0.21 in   Unknown
6:56 PM 61.0 °F 55.0 °F 81% 29.86 in - NNW 10.4 mph - N/A   Unknown
7:56 PM 55.0 °F 52.0 °F 89% 29.89 in - WNW 12.7 mph 21.9 mph N/A   Unknown
8:56 PM 53.1 °F 51.1 °F 93% 29.91 in - NW 13.8 mph 23.0 mph N/A   Unknown
9:56 PM 52.0 °F 50.0 °F 93% 29.91 in - WNW 12.7 mph 19.6 mph N/A   Unknown
10:56 PM 53.1 °F 48.9 °F 86% 29.90 in - NW 16.1 mph 24.2 mph N/A   Unknown
11:56 PM 52.0 °F 48.9 °F 89% 29.90 in - NW 13.8 mph 25.3 mph N/A   Unknown